,,PA_Meas_PMT16A,,PR_Meas_QMR101_102,,RH_Meas_QMH101,,SR_Meas_QMS101,,TA_Meas_QMH101,,GenWind,,GenWind,
time,status,PA,status,PR,status,RH,status,SR,status,TA,status,DirAvg,status,SpdAvg,
2014-11-13, 00:00:04,VALID,918.398,VALID,0,VALID,97.8465,VALID,0,VALID,20.2894,VALID,235,VALID,0,
2014-11-13, 00:01:04,VALID,918.4,VALID,0,VALID,97.8237,VALID,0,VALID,20.2684,VALID,235,VALID,0,
2014-11-13, 00:02:04,VALID,918.389,VALID,0,VALID,97.8313,VALID,0,VALID,20.2684,VALID,235,VALID,0,
2014-11-13, 00:03:04,VALID,918.39,VALID,0,VALID,97.8237,VALID,0,VALID,20.2879,VALID,235,VALID,0,
2014-11-13, 00:04:04,VALID,918.405,VALID,0,VALID,97.8237,VALID,0,VALID,20.2684,VALID,235,VALID,0,
2014-11-13, 00:05:04,VALID,918.386,VALID,0,VALID,97.8313,VALID,0,VALID,20.2684,VALID,235,VALID,0,
2014-11-13, 00:06:04,VALID,918.393,VALID,0,VALID,97.8313,VALID,0,VALID,20.3284,VALID,235,VALID,0,
2014-11-13, 00:07:04,VALID,918.389,VALID,0,VALID,97.7932,VALID,0,VALID,20.3269,VALID,235,VALID,0,
2014-11-13, 00:08:04,VALID,918.389,VALID,0,VALID,97.7856,VALID,0,VALID,20.3659,VALID,235,VALID,0,
2014-11-13, 00:09:04,VALID,918.359,VALID,0,VALID,97.8084,VALID,0,VALID,20.3674,VALID,235,VALID,0,
2014-11-13, 00:10:04,VALID,918.366,VALID,0,VALID,97.816,VALID,0,VALID,20.3074,VALID,235,VALID,0,
2014-11-13, 00:11:04,VALID,918.361,VALID,0,VALID,97.8237,VALID,0,VALID,20.2879,VALID,235,VALID,0,
2014-11-13, 00:12:04,VALID,918.345,VALID,0,VALID,97.816,VALID,0,VALID,20.3089,VALID,235,VALID,0,
2014-11-13, 00:13:04,VALID,918.348,VALID,0,VALID,97.816,VALID,0,VALID,20.2879,VALID,235,VALID,0,
2014-11-13, 00:14:04,VALID,918.309,VALID,0.2,VALID,97.816,VALID,0,VALID,20.3284,VALID,235,VALID,0,
2014-11-13, 00:15:04,VALID,918.302,VALID,0,VALID,97.816,VALID,0,VALID,20.3074,VALID,235,VALID,0,
2014-11-13, 00:16:04,VALID,918.279,VALID,0,VALID,97.8237,VALID,0,VALID,20.3284,VALID,235,VALID,0,
2014-11-13, 00:17:04,VALID,918.281,VALID,0,VALID,97.8237,VALID,0,VALID,20.2879,VALID,235,VALID,0,
2014-11-13, 00:18:04,VALID,918.269,VALID,0,VALID,97.8237,VALID,0,VALID,20.3074,VALID,235,VALID,0,
2014-11-13, 00:19:04,VALID,918.279,VALID,0,VALID,97.8084,VALID,0,VALID,20.3269,VALID,235,VALID,0,
2014-11-13, 00:20:04,VALID,918.278,VALID,0,VALID,97.816,VALID,0,VALID,20.3269,VALID,235,VALID,0,
2014-11-13, 00:21:04,VALID,918.217,VALID,0,VALID,97.8084,VALID,0,VALID,20.3659,VALID,235,VALID,0,
2014-11-13, 00:22:04,VALID,918.22,VALID,0,VALID,97.8084,VALID,0,VALID,20.3854,VALID,235,VALID,0,
2014-11-13, 00:23:04,VALID,918.212,VALID,0,VALID,97.8084,VALID,0,VALID,20.4064,VALID,235,VALID,0,
2014-11-13, 00:24:04,VALID,918.188,VALID,0,VALID,97.8313,VALID,0,VALID,20.3284,VALID,235,VALID,0,
2014-11-13, 00:25:04,VALID,918.137,VALID,0,VALID,97.8313,VALID,0,VALID,20.2879,VALID,235,VALID,0.686328,
2014-11-13, 00:26:04,VALID,918.153,VALID,0,VALID,97.8313,VALID,0,VALID,20.2684,VALID,232,VALID,0.228906,
2014-11-13, 00:27:04,VALID,918.137,VALID,0,VALID,97.8465,VALID,0,VALID,20.2293,VALID,232,VALID,0,
2014-11-13, 00:28:04,VALID,918.138,VALID,0,VALID,97.8465,VALID,0,VALID,20.2699,VALID,232,VALID,0,
2014-11-13, 00:29:04,VALID,918.167,VALID,0,VALID,97.8389,VALID,0,VALID,20.2293,VALID,232,VALID,0.386719,
2014-11-13, 00:30:04,VALID,918.164,VALID,0,VALID,97.8465,VALID,0.107441,VALID,20.2098,VALID,232,VALID,0.137109,
2014-11-13, 00:31:04,VALID,918.147,VALID,0,VALID,97.8313,VALID,0,VALID,20.1903,VALID,232,VALID,0,
2014-11-13, 00:32:04,VALID,918.176,VALID,0,VALID,97.8542,VALID,0,VALID,20.1708,VALID,232,VALID,0.000390625,
2014-11-13, 00:33:04,VALID,918.186,VALID,0,VALID,97.8694,VALID,0,VALID,20.1513,VALID,232,VALID,0,
2014-11-13, 00:34:04,VALID,918.162,VALID,0,VALID,97.8465,VALID,0,VALID,20.1513,VALID,232,VALID,0,
2014-11-13, 00:35:04,VALID,918.192,VALID,0,VALID,97.8465,VALID,0,VALID,20.1318,VALID,232,VALID,0.371094,
2014-11-13, 00:36:04,VALID,918.186,VALID,0,VALID,97.8542,VALID,0,VALID,20.1529,VALID,232,VALID,0,
2014-11-13, 00:37:04,VALID,918.228,VALID,0,VALID,97.877,VALID,0,VALID,20.1318,VALID,231,VALID,0.167578,
2014-11-13, 00:38:04,VALID,918.202,VALID,0,VALID,97.8618,VALID,0,VALID,20.1123,VALID,231,VALID,0,
2014-11-13, 00:39:04,VALID,918.2,VALID,0,VALID,97.8542,VALID,0,VALID,20.1123,VALID,231,VALID,0,
2014-11-13, 00:40:04,VALID,918.209,VALID,0,VALID,97.8694,VALID,0,VALID,20.1529,VALID,231,VALID,0,
2014-11-13, 00:41:04,VALID,918.23,VALID,0,VALID,97.8618,VALID,0,VALID,20.1318,VALID,226,VALID,0,
2014-11-13, 00:42:04,VALID,918.24,VALID,0,VALID,97.8465,VALID,0,VALID,20.1123,VALID,190,VALID,0.585938,
2014-11-13, 00:43:04,VALID,918.2,VALID,0,VALID,97.8694,VALID,0,VALID,20.1123,VALID,190,VALID,0,
2014-11-13, 00:44:04,VALID,918.2,VALID,0,VALID,97.8465,VALID,0,VALID,20.0928,VALID,194,VALID,0,
2014-11-13, 00:45:04,VALID,918.191,VALID,0,VALID,97.8618,VALID,0,VALID,20.0928,VALID,202,VALID,0,
2014-11-13, 00:46:04,VALID,918.194,VALID,0,VALID,97.8694,VALID,0,VALID,20.1123,VALID,202,VALID,0,
2014-11-13, 00:47:04,VALID,918.198,VALID,0,VALID,97.8618,VALID,0,VALID,20.1139,VALID,202,VALID,0,
2014-11-13, 00:48:04,VALID,918.222,VALID,0,VALID,97.8542,VALID,0,VALID,20.0928,VALID,202,VALID,0,
2014-11-13, 00:49:04,VALID,918.219,VALID,0,VALID,97.8618,VALID,0,VALID,20.1123,VALID,202,VALID,0,
2014-11-13, 00:50:04,VALID,918.198,VALID,0,VALID,97.8542,VALID,0,VALID,20.1123,VALID,202,VALID,0,
2014-11-13, 00:51:04,VALID,918.219,VALID,0,VALID,97.8694,VALID,0,VALID,20.1318,VALID,202,VALID,0,
2014-11-13, 00:52:04,VALID,918.156,VALID,0,VALID,97.8694,VALID,0,VALID,20.0928,VALID,202,VALID,0,
2014-11-13, 00:53:04,VALID,918.174,VALID,0,VALID,97.8618,VALID,0,VALID,20.1139,VALID,202,VALID,0,
2014-11-13, 00:54:04,VALID,918.113,VALID,0,VALID,97.8465,VALID,0,VALID,20.0733,VALID,202,VALID,0,
2014-11-13, 00:55:04,VALID,918.101,VALID,0,VALID,97.8847,VALID,0,VALID,20.0733,VALID,211,VALID,0,
2014-11-13, 00:56:04,VALID,918.042,VALID,0,VALID,97.877,VALID,0,VALID,20.0538,VALID,211,VALID,0,
2014-11-13, 00:57:04,VALID,918.06,VALID,0,VALID,97.877,VALID,0,VALID,20.0343,VALID,211,VALID,0,
2014-11-13, 00:58:04,VALID,918.041,VALID,0,VALID,97.877,VALID,0,VALID,20.0749,VALID,201,VALID,0.0332031,
2014-11-13, 00:59:04,VALID,918.007,VALID,0,VALID,97.8694,VALID,0,VALID,20.0343,VALID,189,VALID,0,
2014-11-13, 01:00:04,VALID,917.982,VALID,0,VALID,97.8694,VALID,0,VALID,20.0749,VALID,208,VALID,0,
2014-11-13, 01:01:04,VALID,918.006,VALID,0,VALID,97.877,VALID,0,VALID,20.0553,VALID,186,VALID,0,
2014-11-13, 01:02:04,VALID,917.967,VALID,0,VALID,97.8847,VALID,0,VALID,20.0358,VALID,187,VALID,0,
2014-11-13, 01:03:04,VALID,917.973,VALID,0,VALID,97.8999,VALID,0,VALID,19.9953,VALID,185,VALID,0,
2014-11-13, 01:04:04,VALID,917.953,VALID,0,VALID,97.8923,VALID,0,VALID,19.9953,VALID,172,VALID,0,
2014-11-13, 01:05:04,VALID,917.932,VALID,0,VALID,97.8923,VALID,0,VALID,19.9968,VALID,167,VALID,0,
2014-11-13, 01:06:04,VALID,917.928,VALID,0,VALID,97.8847,VALID,0,VALID,19.9563,VALID,156,VALID,0,
2014-11-13, 01:07:04,VALID,917.943,VALID,0.2,VALID,97.9152,VALID,0,VALID,19.9773,VALID,156,VALID,0,
2014-11-13, 01:08:04,VALID,917.931,VALID,0,VALID,97.8999,VALID,0,VALID,19.9773,VALID,156,VALID,0,
2014-11-13, 01:09:04,VALID,917.946,VALID,0,VALID,97.9075,VALID,0,VALID,19.9563,VALID,156,VALID,0,
2014-11-13, 01:10:04,VALID,917.919,VALID,0,VALID,97.8923,VALID,0,VALID,19.9368,VALID,156,VALID,0,
2014-11-13, 01:11:04,VALID,917.938,VALID,0,VALID,97.9075,VALID,0,VALID,19.9578,VALID,156,VALID,0,
2014-11-13, 01:12:04,VALID,917.923,VALID,0,VALID,97.9075,VALID,0,VALID,19.9368,VALID,156,VALID,0,
2014-11-13, 01:13:04,VALID,917.918,VALID,0.2,VALID,97.8999,VALID,0,VALID,19.9368,VALID,156,VALID,0,
2014-11-13, 01:14:04,VALID,917.883,VALID,0,VALID,97.8923,VALID,0,VALID,19.9578,VALID,157,VALID,0,
2014-11-13, 01:15:04,VALID,917.886,VALID,0,VALID,97.9075,VALID,0,VALID,19.9173,VALID,157,VALID,0,
2014-11-13, 01:16:04,VALID,917.907,VALID,0,VALID,97.8923,VALID,0,VALID,19.9578,VALID,157,VALID,0,
2014-11-13, 01:17:04,VALID,917.865,VALID,0,VALID,97.8999,VALID,0,VALID,19.9368,VALID,157,VALID,0,
2014-11-13, 01:18:04,VALID,917.845,VALID,0,VALID,97.8999,VALID,0,VALID,19.9173,VALID,156,VALID,0,
2014-11-13, 01:19:04,VALID,917.834,VALID,0,VALID,97.8923,VALID,0,VALID,19.9383,VALID,157,VALID,0,
2014-11-13, 01:20:04,VALID,917.808,VALID,0,VALID,97.8999,VALID,0,VALID,19.9368,VALID,157,VALID,0,
2014-11-13, 01:21:04,VALID,917.789,VALID,0,VALID,97.8999,VALID,0,VALID,19.8978,VALID,158,VALID,0,
2014-11-13, 01:22:04,VALID,917.806,VALID,0,VALID,97.877,VALID,0,VALID,19.9368,VALID,158,VALID,0,
2014-11-13, 01:23:04,VALID,917.791,VALID,0,VALID,97.8999,VALID,0,VALID,19.9578,VALID,158,VALID,0,
2014-11-13, 01:24:04,VALID,917.785,VALID,0,VALID,97.8847,VALID,0,VALID,19.9563,VALID,158,VALID,0,
2014-11-13, 01:25:04,VALID,917.75,VALID,0,VALID,97.8694,VALID,0,VALID,19.9758,VALID,158,VALID,0,
2014-11-13, 01:26:04,VALID,917.768,VALID,0,VALID,97.877,VALID,0,VALID,19.9758,VALID,158,VALID,0,
2014-11-13, 01:27:04,VALID,917.743,VALID,0,VALID,97.8923,VALID,0,VALID,19.9953,VALID,158,VALID,0,
2014-11-13, 01:28:04,VALID,917.728,VALID,0,VALID,97.8923,VALID,0,VALID,19.9758,VALID,158,VALID,0,
2014-11-13, 01:29:04,VALID,917.749,VALID,0,VALID,97.8923,VALID,0,VALID,19.9578,VALID,158,VALID,0,
2014-11-13, 01:30:04,VALID,917.724,VALID,0,VALID,97.8999,VALID,0,VALID,19.9173,VALID,158,VALID,0,
2014-11-13, 01:31:04,VALID,917.742,VALID,0,VALID,97.8847,VALID,0,VALID,19.9188,VALID,158,VALID,0,
2014-11-13, 01:32:04,VALID,917.692,VALID,0,VALID,97.8847,VALID,0,VALID,19.9368,VALID,158,VALID,0,
2014-11-13, 01:33:04,VALID,917.704,VALID,0,VALID,97.877,VALID,0,VALID,19.9368,VALID,158,VALID,0,
2014-11-13, 01:34:04,VALID,917.664,VALID,0,VALID,97.8847,VALID,0,VALID,19.9173,VALID,188,VALID,0,
2014-11-13, 01:35:04,VALID,917.64,VALID,0,VALID,97.8923,VALID,0,VALID,19.9368,VALID,198,VALID,0,
2014-11-13, 01:36:04,VALID,917.653,VALID,0,VALID,97.8847,VALID,0,VALID,19.9368,VALID,198,VALID,0,
2014-11-13, 01:37:04,VALID,917.614,VALID,0,VALID,97.877,VALID,0,VALID,19.9758,VALID,198,VALID,0,
2014-11-13, 01:38:04,VALID,917.63,VALID,0,VALID,97.877,VALID,0,VALID,19.9563,VALID,198,VALID,0,
2014-11-13, 01:39:04,VALID,917.649,VALID,0,VALID,97.8847,VALID,0,VALID,19.9563,VALID,198,VALID,0,
2014-11-13, 01:40:04,VALID,917.604,VALID,0,VALID,97.8847,VALID,0,VALID,19.9563,VALID,198,VALID,0,
2014-11-13, 01:41:04,VALID,917.61,VALID,0,VALID,97.8847,VALID,0,VALID,19.9773,VALID,198,VALID,0,
2014-11-13, 01:42:04,VALID,917.597,VALID,0,VALID,97.8923,VALID,0,VALID,19.9758,VALID,198,VALID,0,
2014-11-13, 01:43:04,VALID,917.585,VALID,0,VALID,97.8847,VALID,0,VALID,19.9773,VALID,197,VALID,0,
2014-11-13, 01:44:04,VALID,917.583,VALID,0,VALID,97.877,VALID,0,VALID,19.9758,VALID,197,VALID,0,
2014-11-13, 01:45:04,VALID,917.577,VALID,0,VALID,97.8923,VALID,0,VALID,19.9563,VALID,196,VALID,0,
2014-11-13, 01:46:04,VALID,917.559,VALID,0,VALID,97.877,VALID,0,VALID,19.9368,VALID,196,VALID,0,
2014-11-13, 01:47:04,VALID,917.566,VALID,0,VALID,97.8923,VALID,0,VALID,19.9773,VALID,196,VALID,0,
2014-11-13, 01:48:04,VALID,917.586,VALID,0,VALID,97.8847,VALID,0,VALID,19.9383,VALID,195,VALID,0,
2014-11-13, 01:49:04,VALID,917.575,VALID,0,VALID,97.8923,VALID,0,VALID,19.9173,VALID,195,VALID,0,
2014-11-13, 01:50:04,VALID,917.578,VALID,0,VALID,97.8923,VALID,0,VALID,19.9173,VALID,195,VALID,0,
2014-11-13, 01:51:04,VALID,917.567,VALID,0,VALID,97.8923,VALID,0,VALID,19.8978,VALID,195,VALID,0,
2014-11-13, 01:52:04,VALID,917.582,VALID,0,VALID,97.8923,VALID,0,VALID,19.8978,VALID,195,VALID,0,
2014-11-13, 01:53:04,VALID,917.571,VALID,0,VALID,97.9075,VALID,0,VALID,19.9188,VALID,195,VALID,0,
2014-11-13, 01:54:04,VALID,917.56,VALID,0,VALID,97.8847,VALID,0,VALID,19.8978,VALID,195,VALID,0,
2014-11-13, 01:55:04,VALID,917.606,VALID,0,VALID,97.8847,VALID,0,VALID,19.8978,VALID,195,VALID,0,
2014-11-13, 01:56:04,VALID,917.588,VALID,0.2,VALID,97.8847,VALID,0,VALID,19.8978,VALID,195,VALID,0,
2014-11-13, 01:57:04,VALID,917.625,VALID,0,VALID,97.8847,VALID,0,VALID,19.8993,VALID,128,VALID,0,
2014-11-13, 01:58:04,VALID,917.638,VALID,0,VALID,97.9228,VALID,0,VALID,19.8393,VALID,126,VALID,0,
2014-11-13, 01:59:04,VALID,917.644,VALID,0,VALID,97.9152,VALID,0,VALID,19.8603,VALID,126,VALID,0,
2014-11-13, 02:00:04,VALID,917.628,VALID,0,VALID,97.8999,VALID,0,VALID,19.8408,VALID,129,VALID,0,
2014-11-13, 02:01:04,VALID,917.637,VALID,0,VALID,97.9075,VALID,0,VALID,19.8198,VALID,131,VALID,0,
2014-11-13, 02:02:04,VALID,917.62,VALID,0,VALID,97.9228,VALID,0,VALID,19.8408,VALID,135,VALID,0,
2014-11-13, 02:03:04,VALID,917.627,VALID,0,VALID,97.8999,VALID,0,VALID,19.8198,VALID,135,VALID,0,
2014-11-13, 02:04:04,VALID,917.618,VALID,0,VALID,97.9075,VALID,0,VALID,19.8198,VALID,147,VALID,0,
2014-11-13, 02:05:04,VALID,917.591,VALID,0,VALID,97.9152,VALID,0,VALID,19.8408,VALID,147,VALID,0,
2014-11-13, 02:06:04,VALID,917.598,VALID,0,VALID,97.9228,VALID,0,VALID,19.8213,VALID,145,VALID,0,
2014-11-13, 02:07:04,VALID,917.607,VALID,0,VALID,97.8999,VALID,0,VALID,19.8408,VALID,145,VALID,0,
2014-11-13, 02:08:04,VALID,917.573,VALID,0,VALID,97.8923,VALID,0,VALID,19.8213,VALID,145,VALID,0,
2014-11-13, 02:09:04,VALID,917.558,VALID,0,VALID,97.8999,VALID,0,VALID,19.8198,VALID,145,VALID,0,
2014-11-13, 02:10:04,VALID,917.523,VALID,0,VALID,97.9075,VALID,0,VALID,19.8408,VALID,145,VALID,0,
2014-11-13, 02:11:04,VALID,917.543,VALID,0,VALID,97.8999,VALID,0,VALID,19.8198,VALID,145,VALID,0,
2014-11-13, 02:12:04,VALID,917.51,VALID,0,VALID,97.9075,VALID,0,VALID,19.8198,VALID,148,VALID,0,
2014-11-13, 02:13:04,VALID,917.499,VALID,0,VALID,97.8847,VALID,0,VALID,19.8198,VALID,148,VALID,0,
2014-11-13, 02:14:04,VALID,917.492,VALID,0,VALID,97.8847,VALID,0,VALID,19.8408,VALID,148,VALID,0,
2014-11-13, 02:15:04,VALID,917.483,VALID,0,VALID,97.877,VALID,0,VALID,19.8408,VALID,148,VALID,0,
2014-11-13, 02:16:04,VALID,917.472,VALID,0,VALID,97.9075,VALID,0,VALID,19.8603,VALID,148,VALID,0,
2014-11-13, 02:17:04,VALID,917.479,VALID,0,VALID,97.9075,VALID,0,VALID,19.8603,VALID,148,VALID,0,
2014-11-13, 02:18:04,VALID,917.481,VALID,0,VALID,97.877,VALID,0,VALID,19.8393,VALID,148,VALID,0,
2014-11-13, 02:19:04,VALID,917.484,VALID,0,VALID,97.9152,VALID,0,VALID,19.8213,VALID,147,VALID,0,
2014-11-13, 02:20:04,VALID,917.477,VALID,0,VALID,97.9152,VALID,0,VALID,19.7613,VALID,155,VALID,0.214453,
2014-11-13, 02:21:04,VALID,917.516,VALID,0,VALID,97.9152,VALID,0,VALID,19.7823,VALID,143,VALID,0.235156,
2014-11-13, 02:22:04,VALID,917.484,VALID,0,VALID,97.9152,VALID,0,VALID,19.7613,VALID,145,VALID,0,
2014-11-13, 02:23:04,VALID,917.509,VALID,0,VALID,97.9152,VALID,0,VALID,19.7823,VALID,145,VALID,0,
2014-11-13, 02:24:04,VALID,917.496,VALID,0,VALID,97.9152,VALID,0,VALID,19.7823,VALID,145,VALID,0,
2014-11-13, 02:25:04,VALID,917.469,VALID,0,VALID,97.9152,VALID,0,VALID,19.7613,VALID,154,VALID,0.7375,
2014-11-13, 02:26:04,VALID,917.486,VALID,0,VALID,97.9228,VALID,0,VALID,19.7418,VALID,166,VALID,0.144531,
2014-11-13, 02:27:04,VALID,917.461,VALID,0,VALID,97.9228,VALID,0,VALID,19.7823,VALID,166,VALID,0.294922,
2014-11-13, 02:28:04,VALID,917.441,VALID,0,VALID,97.9075,VALID,0,VALID,19.7628,VALID,143,VALID,0.669922,
2014-11-13, 02:29:04,VALID,917.433,VALID,0,VALID,97.9075,VALID,0,VALID,19.7823,VALID,144,VALID,0,
2014-11-13, 02:30:04,VALID,917.395,VALID,0,VALID,97.9075,VALID,0,VALID,19.7433,VALID,139,VALID,0,
2014-11-13, 02:31:04,VALID,917.37,VALID,0,VALID,97.9075,VALID,0,VALID,19.7028,VALID,139,VALID,0,
2014-11-13, 02:32:04,VALID,917.364,VALID,0,VALID,97.9304,VALID,0,VALID,19.7238,VALID,163,VALID,0,
2014-11-13, 02:33:04,VALID,917.32,VALID,0,VALID,97.938,VALID,0,VALID,19.6848,VALID,150,VALID,0,
2014-11-13, 02:34:04,VALID,917.307,VALID,0,VALID,97.9304,VALID,0,VALID,19.6653,VALID,146,VALID,0,
2014-11-13, 02:35:04,VALID,917.278,VALID,0,VALID,97.9304,VALID,0,VALID,19.6443,VALID,143,VALID,0,
2014-11-13, 02:36:04,VALID,917.256,VALID,0,VALID,97.938,VALID,0,VALID,19.6248,VALID,160,VALID,0,
2014-11-13, 02:37:04,VALID,917.244,VALID,0,VALID,97.9228,VALID,0,VALID,19.6653,VALID,161,VALID,0,
2014-11-13, 02:38:04,VALID,917.24,VALID,0,VALID,97.938,VALID,0,VALID,19.6653,VALID,164,VALID,0,
2014-11-13, 02:39:04,VALID,917.229,VALID,0,VALID,97.9228,VALID,0,VALID,19.6248,VALID,165,VALID,0.148047,
2014-11-13, 02:40:04,VALID,917.209,VALID,0,VALID,97.9075,VALID,0,VALID,19.6653,VALID,181,VALID,0,
2014-11-13, 02:41:04,VALID,917.208,VALID,0,VALID,97.9228,VALID,0,VALID,19.6653,VALID,190,VALID,0,
2014-11-13, 02:42:04,VALID,917.171,VALID,0,VALID,97.938,VALID,0,VALID,19.6653,VALID,144,VALID,0,
2014-11-13, 02:43:04,VALID,917.177,VALID,0,VALID,97.9075,VALID,0,VALID,19.6443,VALID,144,VALID,0,
2014-11-13, 02:44:04,VALID,917.166,VALID,0,VALID,97.9075,VALID,0,VALID,19.6653,VALID,144,VALID,0,
2014-11-13, 02:45:04,VALID,917.163,VALID,0,VALID,97.9152,VALID,0,VALID,19.6653,VALID,144,VALID,0,
2014-11-13, 02:46:04,VALID,917.187,VALID,0,VALID,97.9152,VALID,0,VALID,19.6653,VALID,144,VALID,0,
2014-11-13, 02:47:04,VALID,917.195,VALID,0,VALID,97.8999,VALID,0,VALID,19.6848,VALID,144,VALID,0,
2014-11-13, 02:48:04,VALID,917.185,VALID,0,VALID,97.8847,VALID,0,VALID,19.6848,VALID,144,VALID,0,
2014-11-13, 02:49:04,VALID,917.185,VALID,0,VALID,97.8923,VALID,0,VALID,19.6848,VALID,144,VALID,0,
2014-11-13, 02:50:04,VALID,917.18,VALID,0,VALID,97.8999,VALID,0,VALID,19.6848,VALID,144,VALID,0,
2014-11-13, 02:51:04,VALID,917.205,VALID,0,VALID,97.8923,VALID,0,VALID,19.6653,VALID,144,VALID,0,
2014-11-13, 02:52:04,VALID,917.179,VALID,0,VALID,97.8923,VALID,0,VALID,19.6653,VALID,144,VALID,0,
2014-11-13, 02:53:04,VALID,917.173,VALID,0,VALID,97.8923,VALID,0,VALID,19.6653,VALID,144,VALID,0,
2014-11-13, 02:54:04,VALID,917.155,VALID,0,VALID,97.877,VALID,0,VALID,19.6653,VALID,144,VALID,0,
2014-11-13, 02:55:04,VALID,917.136,VALID,0,VALID,97.8847,VALID,0,VALID,19.6458,VALID,144,VALID,0,
2014-11-13, 02:56:04,VALID,917.151,VALID,0,VALID,97.877,VALID,0,VALID,19.6458,VALID,144,VALID,0,
2014-11-13, 02:57:04,VALID,917.144,VALID,0,VALID,97.8847,VALID,0,VALID,19.6458,VALID,144,VALID,0,
2014-11-13, 02:58:04,VALID,917.153,VALID,0,VALID,97.8847,VALID,0,VALID,19.6458,VALID,144,VALID,0,
2014-11-13, 02:59:04,VALID,917.125,VALID,0,VALID,97.8923,VALID,0,VALID,19.6443,VALID,144,VALID,0,
2014-11-13, 03:00:04,VALID,917.116,VALID,0,VALID,97.8999,VALID,0,VALID,19.6458,VALID,144,VALID,0,
2014-11-13, 03:01:04,VALID,917.121,VALID,0,VALID,97.8847,VALID,0,VALID,19.6458,VALID,144,VALID,0,
2014-11-13, 03:02:04,VALID,917.098,VALID,0,VALID,97.8999,VALID,0,VALID,19.6053,VALID,144,VALID,0,
2014-11-13, 03:03:04,VALID,917.132,VALID,0,VALID,97.8694,VALID,0,VALID,19.6278,VALID,144,VALID,0,
2014-11-13, 03:04:04,VALID,917.133,VALID,0,VALID,97.8923,VALID,0,VALID,19.6068,VALID,144,VALID,0,
2014-11-13, 03:05:04,VALID,917.115,VALID,0,VALID,97.8923,VALID,0,VALID,19.6068,VALID,144,VALID,0,
2014-11-13, 03:06:04,VALID,917.115,VALID,0,VALID,97.877,VALID,0,VALID,19.6068,VALID,144,VALID,0,
2014-11-13, 03:07:04,VALID,917.122,VALID,0,VALID,97.877,VALID,0,VALID,19.5858,VALID,144,VALID,0,
2014-11-13, 03:08:04,VALID,917.142,VALID,0,VALID,97.877,VALID,0,VALID,19.6263,VALID,144,VALID,0,
2014-11-13, 03:09:04,VALID,917.107,VALID,0,VALID,97.877,VALID,0,VALID,19.6068,VALID,144,VALID,0,
2014-11-13, 03:10:04,VALID,917.118,VALID,0,VALID,97.8999,VALID,0,VALID,19.5873,VALID,144,VALID,0,
2014-11-13, 03:11:04,VALID,917.132,VALID,0,VALID,97.8923,VALID,0,VALID,19.5873,VALID,144,VALID,0,
2014-11-13, 03:12:04,VALID,917.1,VALID,0,VALID,97.877,VALID,0,VALID,19.5873,VALID,144,VALID,0,
2014-11-13, 03:13:04,VALID,917.134,VALID,0,VALID,97.8694,VALID,0,VALID,19.5678,VALID,144,VALID,0,
2014-11-13, 03:14:04,VALID,917.101,VALID,0,VALID,97.8618,VALID,0,VALID,19.5873,VALID,144,VALID,0,
2014-11-13, 03:15:04,VALID,917.121,VALID,0,VALID,97.8694,VALID,0,VALID,19.5873,VALID,144,VALID,0,
2014-11-13, 03:16:04,VALID,917.133,VALID,0,VALID,97.8618,VALID,0,VALID,19.5678,VALID,144,VALID,0,
2014-11-13, 03:17:04,VALID,917.117,VALID,0,VALID,97.877,VALID,0,VALID,19.5678,VALID,144,VALID,0,
2014-11-13, 03:18:04,VALID,917.126,VALID,0,VALID,97.877,VALID,0,VALID,19.5483,VALID,139,VALID,0,
2014-11-13, 03:19:04,VALID,917.119,VALID,0,VALID,97.877,VALID,0,VALID,19.5288,VALID,124,VALID,0,
2014-11-13, 03:20:04,VALID,917.11,VALID,0,VALID,97.8694,VALID,0,VALID,19.5483,VALID,129,VALID,0,
2014-11-13, 03:21:04,VALID,917.104,VALID,0,VALID,97.8694,VALID,0,VALID,19.5273,VALID,115,VALID,0,
2014-11-13, 03:22:04,VALID,917.111,VALID,0,VALID,97.8694,VALID,0,VALID,19.5288,VALID,121,VALID,0,
2014-11-13, 03:23:04,VALID,917.128,VALID,0,VALID,97.8847,VALID,0,VALID,19.5078,VALID,113,VALID,0.297266,
2014-11-13, 03:24:04,VALID,917.118,VALID,0,VALID,97.8618,VALID,0,VALID,19.5093,VALID,113,VALID,0,
2014-11-13, 03:25:04,VALID,917.129,VALID,0,VALID,97.8542,VALID,0,VALID,19.5093,VALID,113,VALID,0,
2014-11-13, 03:26:04,VALID,917.106,VALID,0,VALID,97.8618,VALID,0,VALID,19.5093,VALID,108,VALID,0,
2014-11-13, 03:27:04,VALID,917.126,VALID,0,VALID,97.8542,VALID,0,VALID,19.5288,VALID,108,VALID,0,
2014-11-13, 03:28:04,VALID,917.133,VALID,0,VALID,97.8618,VALID,0,VALID,19.5093,VALID,108,VALID,0,
2014-11-13, 03:29:04,VALID,917.117,VALID,0,VALID,97.8542,VALID,0,VALID,19.4883,VALID,108,VALID,0,
2014-11-13, 03:30:04,VALID,917.141,VALID,0,VALID,97.8618,VALID,0,VALID,19.5093,VALID,109,VALID,0,
2014-11-13, 03:31:04,VALID,917.141,VALID,0,VALID,97.8313,VALID,0,VALID,19.5093,VALID,111,VALID,0,
2014-11-13, 03:32:04,VALID,917.161,VALID,0,VALID,97.8542,VALID,0,VALID,19.5288,VALID,123,VALID,0,
2014-11-13, 03:33:04,VALID,917.133,VALID,0,VALID,97.8465,VALID,0,VALID,19.5483,VALID,123,VALID,0,
2014-11-13, 03:34:04,VALID,917.133,VALID,0,VALID,97.8313,VALID,0,VALID,19.5483,VALID,123,VALID,0,
2014-11-13, 03:35:04,VALID,917.135,VALID,0,VALID,97.8465,VALID,0,VALID,19.5468,VALID,123,VALID,0,
2014-11-13, 03:36:04,VALID,917.147,VALID,0,VALID,97.8237,VALID,0,VALID,19.5678,VALID,123,VALID,0,
2014-11-13, 03:37:04,VALID,917.135,VALID,0,VALID,97.8237,VALID,0,VALID,19.6068,VALID,123,VALID,0,
2014-11-13, 03:38:04,VALID,917.13,VALID,0,VALID,97.8389,VALID,0,VALID,19.6263,VALID,123,VALID,0,
2014-11-13, 03:39:04,VALID,917.136,VALID,0,VALID,97.8313,VALID,0,VALID,19.6263,VALID,123,VALID,0,
2014-11-13, 03:40:04,VALID,917.086,VALID,0,VALID,97.8389,VALID,0,VALID,19.6248,VALID,123,VALID,0,
2014-11-13, 03:41:04,VALID,917.092,VALID,0,VALID,97.8237,VALID,0,VALID,19.6458,VALID,123,VALID,0,
2014-11-13, 03:42:04,VALID,917.078,VALID,0,VALID,97.816,VALID,0,VALID,19.6263,VALID,123,VALID,0,
2014-11-13, 03:43:04,VALID,917.106,VALID,0,VALID,97.816,VALID,0,VALID,19.6458,VALID,123,VALID,0,
2014-11-13, 03:44:04,VALID,917.088,VALID,0,VALID,97.816,VALID,0,VALID,19.6458,VALID,123,VALID,0,
2014-11-13, 03:45:04,VALID,917.071,VALID,0,VALID,97.816,VALID,0,VALID,19.6458,VALID,123,VALID,0,
2014-11-13, 03:46:04,VALID,917.066,VALID,0,VALID,97.8237,VALID,0,VALID,19.6653,VALID,123,VALID,0,
2014-11-13, 03:47:04,VALID,917.054,VALID,0,VALID,97.8313,VALID,0,VALID,19.6848,VALID,123,VALID,0,
2014-11-13, 03:48:04,VALID,917.074,VALID,0,VALID,97.8313,VALID,0,VALID,19.6848,VALID,123,VALID,0,
2014-11-13, 03:49:04,VALID,917.033,VALID,0,VALID,97.8389,VALID,0,VALID,19.6638,VALID,123,VALID,0,
2014-11-13, 03:50:04,VALID,917.042,VALID,0,VALID,97.8389,VALID,0,VALID,19.6653,VALID,123,VALID,0,
2014-11-13, 03:51:04,VALID,917.05,VALID,0.2,VALID,97.8389,VALID,0,VALID,19.6458,VALID,123,VALID,0,
2014-11-13, 03:52:04,VALID,917.045,VALID,0,VALID,97.8389,VALID,0,VALID,19.6458,VALID,123,VALID,0,
2014-11-13, 03:53:04,VALID,917.025,VALID,0,VALID,97.8389,VALID,0,VALID,19.6263,VALID,123,VALID,0,
2014-11-13, 03:54:04,VALID,917.032,VALID,0,VALID,97.8465,VALID,0,VALID,19.6458,VALID,123,VALID,0,
2014-11-13, 03:55:04,VALID,917.037,VALID,0,VALID,97.8313,VALID,0,VALID,19.6458,VALID,123,VALID,0,
2014-11-13, 03:56:04,VALID,917.028,VALID,0,VALID,97.8618,VALID,0,VALID,19.6458,VALID,123,VALID,0,
2014-11-13, 03:57:04,VALID,917.032,VALID,0,VALID,97.8465,VALID,0,VALID,19.6848,VALID,123,VALID,0,
2014-11-13, 03:58:04,VALID,917.035,VALID,0,VALID,97.8389,VALID,0,VALID,19.6653,VALID,123,VALID,0,